Flag for Switzerland Weather past 2 weeks in Schwyz, Schwyz, Switzerland

Now
38 °F

Chilly.


Feels Like: 33 °F
Forecast: 26 / 48 °F
Wind: 6 mph from Northwest

Location: Altdorf

Current Time: Feb 28, 2015 at 3:51:35 AM

Latest Report: Feb 28, 2015 at 3:00 AM


Visibility: N/A

Pressure: 30.18 "Hg

Humidity: 84%

Dew point: 33 °F

Location of SchwyzLocation

Historic Weather in Schwyz — Graph

°F

Schwyz temperature yesterday

Maximum temperature yesterday: 41 °F (at 5:00 PM)
Minimum temperature yesterday: 33 °F (at 12:00 AM)
Average temperature yesterday: 38 °F

Past Weeks' High & Low Weather Summary

 TemperatureHumidityPressure
High52 °F (Feb 21, 12:00 PM)100% (Feb 13, 3:00 AM)30.70 "Hg (Feb 13, 3:00 AM)
Low25 °F (Feb 20, 6:00 AM)18% (Feb 20, 8:00 PM)29.47 "Hg (Feb 21, 12:00 PM)
Average37 °F77%30.07 "Hg
* Reported Feb 13 2:00 AM — Feb 28 2:00 AM, Schwyz, Weather by CustomWeather, © 2015

Note: Actual official high and low records may vary slightly from our data, if they occured in-between our weather recording intervals... More about our weather records

Advertising

Schwyz weather history for previous 24 hours

 ConditionsComfort  
Time TempWeatherWind HumidityBarometerVisibility
2:00 AM
Sat, Feb 28
38 °FChilly.5 mph83%30.19 "HgN/A
1:00 AM38 °FLight rain. Overcast.2 mph83%30.19 "Hg9 mi
12:00 AM38 °FChilly.1 mph85%30.19 "HgN/A
11:00 PM
Fri, Feb 27
38 °FChilly.7 mph82%30.18 "HgN/A
9:00 PM39 °FChilly.9 mph78%30.16 "HgN/A
8:00 PM40 °FChilly.9 mph79%30.14 "HgN/A
7:00 PM40 °FFog.16 mph78%30.11 "Hg7 mi
6:00 PM41 °FQuite cool.15 mph73%30.07 "HgN/A
5:00 PM41 °FQuite cool.5 mph80%30.03 "HgN/A
4:00 PM40 °FLight rain. Overcast.6 mph85%30.01 "Hg4 mi
3:00 PM39 °FChilly.3 mph88%29.99 "HgN/A
2:00 PM38 °FChilly.1 mph89%29.96 "HgN/A
1:00 PM37 °FRain. Low clouds.3 mph92%29.96 "Hg3 mi
12:00 PM38 °FChilly.3 mph91%29.93 "HgN/A
11:00 AM37 °FChilly.2 mph90%29.92 "HgN/A
10:00 AM37 °FOvercast.5 mph91%29.89 "Hg9 mi
9:00 AM37 °FChilly.5 mph89%29.88 "HgN/A
8:00 AM39 °FChilly.8 mph71%29.86 "HgN/A
7:00 AM37 °FOvercast.2 mph71%29.85 "Hg11 mi
6:00 AM36 °FChilly.2 mph71%29.86 "HgN/A
5:00 AM35 °FChilly.1 mph72%29.87 "HgN/A
3:00 AM35 °FChilly.2 mph63%29.93 "HgN/A
Weather by CustomWeather, © 2015

See weather overviewHow to use our weather pages